Year,Month,Day,Hour,Minute,Value (Times are PST for temperature in C)
2019,10,01,00,00,5.70
2019,10,01,00,01,5.70
2019,10,01,00,02,5.60
2019,10,01,00,03,5.60
2019,10,01,00,04,5.60
2019,10,01,00,05,5.60
2019,10,01,00,06,5.50
2019,10,01,00,07,5.50
2019,10,01,00,08,5.50
2019,10,01,00,09,5.50
2019,10,01,00,10,5.50
2019,10,01,00,11,5.40
2019,10,01,00,12,5.40
2019,10,01,00,13,5.40
2019,10,01,00,14,5.40
2019,10,01,00,15,5.30
2019,10,01,00,16,5.30
2019,10,01,00,17,5.30
2019,10,01,00,18,5.30
2019,10,01,00,19,5.30
2019,10,01,00,20,5.30
2019,10,01,00,21,5.30
2019,10,01,00,22,5.30
2019,10,01,00,23,5.30
2019,10,01,00,24,5.30
2019,10,01,00,25,5.30
2019,10,01,00,26,5.30
2019,10,01,00,27,5.30
2019,10,01,00,43,4.80
2019,10,01,00,44,4.80
2019,10,01,00,45,4.80
2019,10,01,00,46,4.80
2019,10,01,00,47,4.80
2019,10,01,00,48,4.70
2019,10,01,00,49,4.70
2019,10,01,00,50,4.70
2019,10,01,00,51,4.70
2019,10,01,00,52,4.70
2019,10,01,00,53,4.70
2019,10,01,00,54,4.80
2019,10,01,00,55,4.80
2019,10,01,00,56,4.80
2019,10,01,00,57,4.80
2019,10,01,00,58,4.80
2019,10,01,00,59,4.70
2019,10,01,01,00,4.80
2019,10,01,01,01,4.80
2019,10,01,01,02,4.80
2019,10,01,01,03,4.80
2019,10,01,01,04,4.80
2019,10,01,01,05,4.80
2019,10,01,01,06,4.80
2019,10,01,01,07,4.80
2019,10,01,01,08,4.80
2019,10,01,01,09,4.90
2019,10,01,01,10,4.90
2019,10,01,01,11,4.90
2019,10,01,01,12,4.90
2019,10,01,01,13,4.80
2019,10,01,01,14,4.80
2019,10,01,01,15,4.80
2019,10,01,01,16,4.80
2019,10,01,01,17,4.80
2019,10,01,01,18,4.80
2019,10,01,01,19,4.80
2019,10,01,01,20,4.80
2019,10,01,01,21,4.80
2019,10,01,01,22,4.80
2019,10,01,01,23,4.80
2019,10,01,01,24,4.80
2019,10,01,01,25,4.80
2019,10,01,01,26,4.80
2019,10,01,01,27,4.80
2019,10,01,01,28,4.80
2019,10,01,01,29,4.80
2019,10,01,01,30,4.80
2019,10,01,01,31,4.80
2019,10,01,01,32,4.80
2019,10,01,01,33,4.80
2019,10,01,01,34,4.80
2019,10,01,01,35,4.80
2019,10,01,01,36,4.80
2019,10,01,01,37,4.80
2019,10,01,01,38,4.80
2019,10,01,01,39,4.80
2019,10,01,01,40,4.80
2019,10,01,01,41,4.80
2019,10,01,01,42,4.80
2019,10,01,01,43,4.80
2019,10,01,01,44,4.80
2019,10,01,01,45,4.80
2019,10,01,01,46,4.80
2019,10,01,01,47,4.80
2019,10,01,01,48,4.90
2019,10,01,01,49,4.90
2019,10,01,01,50,4.90
2019,10,01,01,51,4.90
2019,10,01,01,52,4.90
2019,10,01,01,53,4.90
2019,10,01,01,54,4.90
2019,10,01,01,55,4.90
2019,10,01,01,56,4.90
2019,10,01,01,57,4.90
2019,10,01,01,58,4.90
2019,10,01,01,59,4.90
2019,10,01,02,00,4.90
2019,10,01,02,01,4.90
2019,10,01,02,02,4.90
2019,10,01,02,03,4.80
2019,10,01,02,04,4.80
2019,10,01,02,05,4.80
2019,10,01,02,06,4.80
2019,10,01,02,07,4.80
2019,10,01,02,08,4.80
2019,10,01,02,09,4.80
2019,10,01,02,10,4.80
2019,10,01,02,11,4.80
2019,10,01,02,12,4.80
2019,10,01,02,13,4.80
2019,10,01,02,14,4.80
2019,10,01,02,15,4.80
2019,10,01,02,16,4.80
2019,10,01,02,17,4.80
2019,10,01,02,18,4.80
2019,10,01,02,19,4.80
2019,10,01,02,20,4.80
2019,10,01,02,21,4.80
2019,10,01,02,22,4.70
2019,10,01,02,23,4.70
2019,10,01,02,24,4.70
2019,10,01,02,25,4.70
2019,10,01,02,26,4.70
2019,10,01,02,27,4.70
2019,10,01,02,28,4.70
2019,10,01,02,29,4.70
2019,10,01,02,30,4.70
2019,10,01,02,31,4.70
2019,10,01,02,32,4.70
2019,10,01,02,33,4.70
2019,10,01,02,34,4.70
2019,10,01,02,35,4.70
2019,10,01,02,36,4.70
2019,10,01,02,37,4.70
2019,10,01,02,38,4.60
2019,10,01,02,39,4.60
2019,10,01,02,40,4.60
2019,10,01,02,41,4.60
2019,10,01,02,42,4.60
2019,10,01,02,43,4.50
2019,10,01,02,44,4.50
2019,10,01,02,45,4.50
2019,10,01,02,46,4.50
2019,10,01,02,47,4.50
2019,10,01,02,48,4.40
2019,10,01,02,49,4.40
2019,10,01,02,50,4.40
2019,10,01,02,51,4.40
2019,10,01,02,52,4.40
2019,10,01,02,53,4.40
2019,10,01,02,54,4.40
2019,10,01,02,55,4.40
2019,10,01,02,56,4.30
2019,10,01,02,57,4.30
2019,10,01,02,58,4.30
2019,10,01,02,59,4.30
2019,10,01,03,00,4.30
2019,10,01,03,01,4.20
2019,10,01,03,02,4.20
2019,10,01,03,03,4.20
2019,10,01,03,04,4.20
2019,10,01,03,05,4.20
2019,10,01,03,06,4.20
2019,10,01,03,07,4.10
2019,10,01,03,08,4.10
2019,10,01,03,09,4.10
2019,10,01,03,10,4.10
2019,10,01,03,11,4.10
2019,10,01,03,12,4.10
2019,10,01,03,13,4.00
2019,10,01,03,14,4.00
2019,10,01,03,15,4.00
2019,10,01,03,16,3.90
2019,10,01,03,17,3.90
2019,10,01,03,18,3.90
2019,10,01,03,19,3.90
2019,10,01,03,20,3.90
2019,10,01,03,21,3.80
2019,10,01,03,22,3.80
2019,10,01,03,23,3.80
2019,10,01,03,24,3.80
2019,10,01,03,25,3.80
2019,10,01,03,26,3.80
2019,10,01,03,27,3.80
2019,10,01,03,28,3.70
2019,10,01,03,29,3.70
2019,10,01,03,30,3.70
2019,10,01,03,31,3.70
2019,10,01,03,32,3.70
2019,10,01,03,33,3.70
2019,10,01,03,34,3.70
2019,10,01,03,35,3.60
2019,10,01,03,36,3.60
2019,10,01,03,37,3.60
2019,10,01,03,38,3.60
2019,10,01,03,39,3.50
2019,10,01,03,40,3.50
2019,10,01,03,41,3.60
2019,10,01,03,42,3.60
2019,10,01,03,43,3.60
2019,10,01,03,44,3.60
2019,10,01,03,45,3.60
2019,10,01,03,46,3.60
2019,10,01,03,47,3.60
2019,10,01,03,48,3.60
2019,10,01,03,49,3.60
2019,10,01,03,50,3.60
2019,10,01,03,51,3.60
2019,10,01,03,52,3.60
2019,10,01,03,53,3.60
2019,10,01,03,54,3.60
2019,10,01,03,55,3.60
2019,10,01,03,56,3.60
2019,10,01,03,57,3.50
2019,10,01,03,58,3.50
2019,10,01,03,59,3.50
2019,10,01,04,00,3.50
2019,10,01,04,01,3.40
2019,10,01,04,02,3.40
2019,10,01,04,03,3.40
2019,10,01,04,04,3.40
2019,10,01,04,05,3.40
2019,10,01,04,06,3.40
2019,10,01,04,07,3.40
2019,10,01,04,08,3.40
2019,10,01,04,09,3.40
2019,10,01,04,10,3.40
2019,10,01,04,11,3.40
2019,10,01,04,12,3.40
2019,10,01,04,13,3.30
2019,10,01,04,14,3.30
2019,10,01,04,15,3.30
2019,10,01,04,16,3.30
2019,10,01,04,17,3.30
2019,10,01,04,18,3.30
2019,10,01,04,19,3.30
2019,10,01,04,20,3.30
2019,10,01,04,21,3.30
2019,10,01,04,22,3.30
2019,10,01,04,23,3.30
2019,10,01,04,24,3.30
2019,10,01,04,25,3.30
2019,10,01,04,26,3.30
2019,10,01,04,27,3.30
2019,10,01,04,28,3.30
2019,10,01,04,29,3.30
2019,10,01,04,30,3.20
2019,10,01,04,31,3.20
2019,10,01,04,32,3.20
2019,10,01,04,33,3.20
2019,10,01,04,34,3.20
2019,10,01,04,35,3.20
2019,10,01,04,36,3.20
2019,10,01,04,37,3.20
2019,10,01,04,38,3.20
2019,10,01,04,39,3.20
2019,10,01,04,40,3.20
2019,10,01,04,41,3.20
2019,10,01,04,42,3.10
2019,10,01,04,43,3.10
2019,10,01,04,44,3.10
2019,10,01,04,45,3.10
2019,10,01,04,46,3.10
2019,10,01,04,47,3.10
2019,10,01,04,48,3.00
2019,10,01,04,49,3.00
2019,10,01,04,50,3.00
2019,10,01,04,51,3.00
2019,10,01,04,52,3.00
2019,10,01,04,53,3.00
2019,10,01,04,54,3.00
2019,10,01,04,55,3.00
2019,10,01,04,56,3.10
2019,10,01,04,57,3.10
2019,10,01,04,58,3.10
2019,10,01,04,59,3.10
2019,10,01,05,00,3.10
2019,10,01,05,01,3.10
2019,10,01,05,02,3.10
2019,10,01,05,03,3.00
2019,10,01,05,04,3.00
2019,10,01,05,05,3.00
2019,10,01,05,06,3.00
2019,10,01,05,07,3.00
2019,10,01,05,08,3.00
2019,10,01,05,09,3.00
2019,10,01,05,10,2.90
2019,10,01,05,11,2.90
2019,10,01,05,12,2.90
2019,10,01,05,13,2.90
2019,10,01,05,14,2.90
2019,10,01,05,15,2.90
2019,10,01,05,16,2.90
2019,10,01,05,17,2.80
2019,10,01,05,18,2.80
2019,10,01,05,19,2.80
2019,10,01,05,20,2.80
2019,10,01,05,21,2.80
2019,10,01,05,22,2.70
2019,10,01,05,23,2.70
2019,10,01,05,24,2.70
2019,10,01,05,25,2.70
2019,10,01,05,26,2.70
2019,10,01,05,27,2.70
2019,10,01,05,28,2.70
2019,10,01,05,29,2.70
2019,10,01,05,30,2.70
2019,10,01,05,31,2.70
2019,10,01,05,32,2.70
2019,10,01,05,33,2.70
2019,10,01,05,34,2.70
2019,10,01,05,35,2.70
2019,10,01,05,36,2.70
2019,10,01,05,37,2.70
2019,10,01,05,38,2.70
2019,10,01,05,39,2.70
2019,10,01,05,40,2.70
2019,10,01,05,41,2.70
2019,10,01,05,42,2.70
2019,10,01,05,43,2.70
2019,10,01,05,44,2.70
2019,10,01,05,45,2.70
2019,10,01,05,46,2.70
2019,10,01,05,47,2.70
2019,10,01,05,48,2.70
2019,10,01,05,49,2.70
2019,10,01,05,50,2.60
2019,10,01,05,51,2.70
2019,10,01,05,52,2.60
2019,10,01,05,53,2.60
2019,10,01,05,54,2.60
2019,10,01,05,55,2.60
2019,10,01,05,56,2.60
2019,10,01,05,57,2.60
2019,10,01,05,58,2.60
2019,10,01,05,59,2.60
2019,10,01,06,00,2.60
2019,10,01,06,01,2.60
2019,10,01,06,02,2.60
2019,10,01,06,03,2.50
2019,10,01,06,04,2.50
2019,10,01,06,05,2.50
2019,10,01,06,06,2.50
2019,10,01,06,07,2.50
2019,10,01,06,08,2.50
2019,10,01,06,09,2.40
2019,10,01,06,10,2.40
2019,10,01,06,11,2.40
2019,10,01,06,12,2.40
2019,10,01,06,13,2.40
2019,10,01,06,14,2.40
2019,10,01,06,15,2.30
2019,10,01,06,16,2.30
2019,10,01,06,17,2.30
2019,10,01,06,18,2.30
2019,10,01,06,19,2.30
2019,10,01,06,20,2.30
2019,10,01,06,21,2.30
2019,10,01,06,22,2.30
2019,10,01,06,23,2.30
2019,10,01,06,24,2.30
2019,10,01,06,25,2.30
2019,10,01,06,26,2.30
2019,10,01,06,27,2.30
2019,10,01,06,28,2.30
2019,10,01,06,29,2.20
2019,10,01,06,30,2.20
2019,10,01,06,31,2.20
2019,10,01,06,32,2.20
2019,10,01,06,33,2.20
2019,10,01,06,34,2.30
2019,10,01,06,35,2.30
2019,10,01,06,36,2.30
2019,10,01,06,37,2.30
2019,10,01,06,38,2.30
2019,10,01,06,39,2.30
2019,10,01,06,40,2.30
2019,10,01,06,41,2.30
2019,10,01,06,42,2.30
2019,10,01,06,43,2.30
2019,10,01,06,44,2.30
2019,10,01,06,45,2.30
2019,10,01,06,46,2.30
2019,10,01,06,47,2.30
2019,10,01,06,48,2.30
2019,10,01,06,49,2.30
2019,10,01,06,50,2.20
2019,10,01,06,51,2.20
2019,10,01,06,52,2.20
2019,10,01,06,53,2.20
2019,10,01,06,54,2.20
2019,10,01,06,55,2.20
2019,10,01,06,56,2.20
2019,10,01,06,57,2.20
2019,10,01,06,58,2.20
2019,10,01,06,59,2.20
2019,10,01,07,00,2.20
2019,10,01,07,01,2.20
2019,10,01,07,02,2.20
2019,10,01,07,03,2.30
2019,10,01,07,04,2.20
2019,10,01,07,05,2.20
2019,10,01,07,06,2.20
2019,10,01,07,07,2.20
2019,10,01,07,08,2.20
2019,10,01,07,09,2.20
2019,10,01,07,10,2.20
2019,10,01,07,11,2.20
2019,10,01,07,12,2.20
2019,10,01,07,13,2.20
2019,10,01,07,14,2.20
2019,10,01,07,15,2.20
2019,10,01,07,16,2.20
2019,10,01,07,17,2.20
2019,10,01,07,18,2.20
2019,10,01,07,19,2.20
2019,10,01,07,20,2.20
2019,10,01,07,21,2.20
2019,10,01,07,22,2.20
2019,10,01,07,23,2.20
2019,10,01,07,24,2.20
2019,10,01,07,25,2.20
2019,10,01,07,26,2.10
2019,10,01,07,27,2.10
2019,10,01,07,28,2.10
2019,10,01,07,29,2.10
2019,10,01,07,30,2.10
2019,10,01,07,31,2.10
2019,10,01,07,32,2.10
2019,10,01,07,33,2.10
2019,10,01,07,34,2.10
2019,10,01,07,35,2.10
2019,10,01,07,36,2.10
2019,10,01,07,37,2.10
2019,10,01,07,38,2.10
2019,10,01,07,39,2.10
2019,10,01,07,40,2.10
2019,10,01,07,41,2.20
2019,10,01,07,42,2.20
2019,10,01,07,43,2.20
2019,10,01,07,44,2.20
2019,10,01,07,45,2.20
2019,10,01,07,46,2.20
2019,10,01,07,47,2.20
2019,10,01,07,48,2.20
2019,10,01,07,49,2.20
2019,10,01,07,50,2.20
2019,10,01,07,51,2.20
2019,10,01,07,52,2.30
2019,10,01,07,53,2.30
2019,10,01,07,54,2.30
2019,10,01,07,55,2.30
2019,10,01,07,56,2.30
2019,10,01,07,57,2.30
2019,10,01,07,58,2.30
2019,10,01,07,59,2.30
2019,10,01,08,00,2.30
2019,10,01,08,01,2.30
2019,10,01,08,02,2.30
2019,10,01,08,03,2.30
2019,10,01,08,04,2.30
2019,10,01,08,05,2.40
2019,10,01,08,06,2.40
2019,10,01,08,07,2.40
2019,10,01,08,08,2.40
2019,10,01,08,09,2.40
2019,10,01,08,10,2.50
2019,10,01,08,11,2.50
2019,10,01,08,12,2.50
2019,10,01,08,13,2.50
2019,10,01,08,14,2.50
2019,10,01,08,15,2.60
2019,10,01,08,16,2.60
2019,10,01,08,17,2.60
2019,10,01,08,18,2.60
2019,10,01,08,19,2.60
2019,10,01,08,20,2.70
2019,10,01,08,21,2.70
2019,10,01,08,22,2.70
2019,10,01,08,23,2.70
2019,10,01,08,24,2.80
2019,10,01,08,25,2.80
2019,10,01,08,26,2.80
2019,10,01,08,27,2.80
2019,10,01,08,28,2.80
2019,10,01,08,29,2.80
2019,10,01,08,30,2.80
2019,10,01,08,31,2.80
2019,10,01,08,32,2.90
2019,10,01,08,33,2.90
2019,10,01,08,34,2.90
2019,10,01,08,35,2.90
2019,10,01,08,36,3.00
2019,10,01,08,37,3.00
2019,10,01,08,38,3.00
2019,10,01,08,39,3.10
2019,10,01,08,40,3.10
2019,10,01,08,41,3.10
2019,10,01,08,42,3.10
2019,10,01,08,43,3.10
2019,10,01,08,44,3.20
2019,10,01,08,45,3.20
2019,10,01,08,46,3.20
2019,10,01,08,47,3.20
2019,10,01,08,48,3.30
2019,10,01,08,49,3.30
2019,10,01,08,50,3.30
2019,10,01,08,51,3.40
2019,10,01,08,52,3.40
2019,10,01,08,53,3.40
2019,10,01,08,54,3.50
2019,10,01,08,55,3.60
2019,10,01,08,56,3.60
2019,10,01,08,57,3.70
2019,10,01,08,58,3.70
2019,10,01,08,59,3.80
2019,10,01,09,00,3.80
2019,10,01,09,01,3.90
2019,10,01,09,02,3.90
2019,10,01,09,03,3.90
2019,10,01,09,04,3.90
2019,10,01,09,05,3.90
2019,10,01,09,06,3.90
2019,10,01,09,07,4.00
2019,10,01,09,08,4.20
2019,10,01,09,09,4.30
2019,10,01,09,10,4.30
2019,10,01,09,11,4.30
2019,10,01,09,12,4.40
2019,10,01,09,13,4.50
2019,10,01,09,14,4.50
2019,10,01,09,15,4.60
2019,10,01,09,16,4.70
2019,10,01,09,17,4.70
2019,10,01,09,18,4.70
2019,10,01,09,19,4.80
2019,10,01,09,20,4.80
2019,10,01,09,21,4.80
2019,10,01,09,22,4.90
2019,10,01,09,23,4.90
2019,10,01,09,24,5.00
2019,10,01,09,25,5.00
2019,10,01,09,26,5.10
2019,10,01,09,27,5.10
2019,10,01,09,28,5.20
2019,10,01,09,29,5.20
2019,10,01,09,30,5.20
2019,10,01,09,31,5.30
2019,10,01,09,32,5.30
2019,10,01,09,33,5.40
2019,10,01,09,34,5.40
2019,10,01,09,35,5.50
2019,10,01,09,36,5.50
2019,10,01,09,37,5.60
2019,10,01,09,38,5.60
2019,10,01,09,39,5.70
2019,10,01,09,40,5.70
2019,10,01,09,41,5.80
2019,10,01,09,42,5.90
2019,10,01,09,43,6.00
2019,10,01,09,44,6.10
2019,10,01,09,45,6.20
2019,10,01,09,46,6.30
2019,10,01,09,47,6.30
2019,10,01,09,48,6.30
2019,10,01,09,49,6.30
2019,10,01,09,50,6.30
2019,10,01,09,51,6.30
2019,10,01,09,52,6.30
2019,10,01,09,53,6.40
2019,10,01,09,54,6.50
2019,10,01,09,55,6.60
2019,10,01,09,56,6.70
2019,10,01,09,57,6.70
2019,10,01,09,58,6.70
2019,10,01,09,59,6.80
2019,10,01,10,00,6.90
2019,10,01,10,01,6.90
2019,10,01,10,02,7.00
2019,10,01,10,03,7.00
2019,10,01,10,04,7.10
2019,10,01,10,05,7.20
2019,10,01,10,06,7.30
2019,10,01,10,07,7.30
2019,10,01,10,08,7.30
2019,10,01,10,09,7.40
2019,10,01,10,10,7.40
2019,10,01,10,11,7.40
2019,10,01,10,12,7.50
2019,10,01,10,13,7.50
2019,10,01,10,14,7.50
2019,10,01,10,15,7.60
2019,10,01,10,16,7.60
2019,10,01,10,17,7.60
2019,10,01,10,18,7.60
2019,10,01,10,19,7.70
2019,10,01,10,20,7.70
2019,10,01,10,21,7.70
2019,10,01,10,22,7.70
2019,10,01,10,23,7.70
2019,10,01,10,24,7.70
2019,10,01,10,25,7.70
2019,10,01,10,26,7.80
2019,10,01,10,27,7.80
2019,10,01,10,28,7.80
2019,10,01,10,29,7.80
2019,10,01,10,30,7.80
2019,10,01,10,31,7.80
2019,10,01,10,32,7.90
2019,10,01,10,33,8.00
2019,10,01,10,34,8.10
2019,10,01,10,35,8.20
2019,10,01,10,36,8.20
2019,10,01,10,37,8.20
2019,10,01,10,38,8.20
2019,10,01,10,39,8.20
2019,10,01,10,40,8.20
2019,10,01,10,41,8.30
2019,10,01,10,42,8.30
2019,10,01,10,43,8.40
2019,10,01,10,44,8.40
2019,10,01,10,45,8.40
2019,10,01,10,46,8.40
2019,10,01,10,47,8.50
2019,10,01,10,48,8.50
2019,10,01,10,49,8.60
2019,10,01,10,50,8.70
2019,10,01,10,51,8.70
2019,10,01,10,52,8.70
2019,10,01,10,53,8.80
2019,10,01,10,54,8.80
2019,10,01,10,55,8.80
2019,10,01,10,56,8.90
2019,10,01,10,57,8.90
2019,10,01,10,58,8.90
2019,10,01,10,59,9.00
2019,10,01,11,00,9.10
2019,10,01,11,01,9.10
2019,10,01,11,02,9.20
2019,10,01,11,03,9.20
2019,10,01,11,04,9.20
2019,10,01,11,05,9.30
2019,10,01,11,06,9.40
2019,10,01,11,07,9.50
2019,10,01,11,08,9.60
2019,10,01,11,09,9.70
2019,10,01,11,10,9.80
2019,10,01,11,11,9.90
2019,10,01,11,12,9.90
2019,10,01,11,13,10.00
2019,10,01,11,14,10.10
2019,10,01,11,15,10.20
2019,10,01,11,16,10.20
2019,10,01,11,17,10.20
2019,10,01,11,18,10.20
2019,10,01,11,19,10.20
2019,10,01,11,20,10.30
2019,10,01,11,21,10.30
2019,10,01,11,22,10.40
2019,10,01,11,23,10.50
2019,10,01,11,24,10.60
2019,10,01,11,25,10.70
2019,10,01,11,26,10.80
2019,10,01,11,27,10.90
2019,10,01,11,28,10.90
2019,10,01,11,29,11.00
2019,10,01,11,30,11.00
2019,10,01,11,31,11.10
2019,10,01,11,32,11.20
2019,10,01,11,33,11.20
2019,10,01,11,34,11.30
2019,10,01,11,35,11.30
2019,10,01,11,36,11.40
2019,10,01,11,37,11.40
2019,10,01,11,38,11.40
2019,10,01,11,39,11.40
2019,10,01,11,40,11.40
2019,10,01,11,41,11.40
2019,10,01,11,42,11.50
2019,10,01,11,43,11.50
2019,10,01,11,44,11.50
2019,10,01,11,45,11.50
2019,10,01,11,46,11.50
2019,10,01,11,47,11.50
2019,10,01,11,48,11.50
2019,10,01,11,49,11.60
2019,10,01,11,50,11.60
2019,10,01,11,51,11.60
2019,10,01,11,52,11.70
2019,10,01,11,53,11.80
2019,10,01,11,54,11.90
2019,10,01,11,55,12.10
2019,10,01,11,56,12.20
2019,10,01,11,57,12.30
2019,10,01,11,58,12.40
2019,10,01,11,59,12.50
2019,10,01,12,00,12.60
2019,10,01,12,01,12.70
2019,10,01,12,02,12.70
2019,10,01,12,03,12.80
2019,10,01,12,04,12.90
2019,10,01,12,05,13.00
2019,10,01,12,06,13.10
2019,10,01,12,07,13.10
2019,10,01,12,08,13.20
2019,10,01,12,09,13.30
2019,10,01,12,10,13.30
2019,10,01,12,11,13.40
2019,10,01,12,12,13.40
2019,10,01,12,13,13.40
2019,10,01,12,14,13.40
2019,10,01,12,15,13.40
2019,10,01,12,16,13.40
2019,10,01,12,17,13.40
2019,10,01,12,18,13.50
2019,10,01,12,19,13.50
2019,10,01,12,20,13.50
2019,10,01,12,21,13.60
2019,10,01,12,22,13.60
2019,10,01,12,23,13.70
2019,10,01,12,24,13.70
2019,10,01,12,25,13.80
2019,10,01,12,26,13.80
2019,10,01,12,27,13.80
2019,10,01,12,28,13.90
2019,10,01,12,29,13.90
2019,10,01,12,30,14.00
2019,10,01,12,31,14.00
2019,10,01,12,32,14.10
2019,10,01,12,33,14.10
2019,10,01,12,34,14.20
2019,10,01,12,35,14.20
2019,10,01,12,36,14.20
2019,10,01,12,37,14.20
2019,10,01,12,38,14.20
2019,10,01,12,39,14.20
2019,10,01,12,40,14.20
2019,10,01,12,41,14.10
2019,10,01,12,42,14.10
2019,10,01,12,43,14.00
2019,10,01,12,44,13.90
2019,10,01,12,45,13.90
2019,10,01,12,46,13.90
2019,10,01,12,47,13.90
2019,10,01,12,48,13.90
2019,10,01,12,49,14.00
2019,10,01,12,50,14.00
2019,10,01,12,51,14.10
2019,10,01,12,52,14.10
2019,10,01,12,53,14.20
2019,10,01,12,54,14.20
2019,10,01,12,55,14.30
2019,10,01,12,56,14.30
2019,10,01,12,57,14.30
2019,10,01,12,58,14.30
2019,10,01,12,59,14.20
2019,10,01,13,00,14.10
2019,10,01,13,01,14.10
2019,10,01,13,02,14.10
2019,10,01,13,03,14.10
2019,10,01,13,04,14.10
2019,10,01,13,05,14.10
2019,10,01,13,06,14.10
2019,10,01,13,07,14.10
2019,10,01,13,08,14.20
2019,10,01,13,09,14.20
2019,10,01,13,10,14.20
2019,10,01,13,11,14.20
2019,10,01,13,12,14.20
2019,10,01,13,13,14.30
2019,10,01,13,14,14.30
2019,10,01,13,15,14.30
2019,10,01,13,16,14.30
2019,10,01,13,17,14.30
2019,10,01,13,18,14.30
2019,10,01,13,19,14.40
2019,10,01,13,20,14.40
2019,10,01,13,21,14.40
2019,10,01,13,22,14.50
2019,10,01,13,23,14.50
2019,10,01,13,24,14.60
2019,10,01,13,25,14.60
2019,10,01,13,26,14.70
2019,10,01,13,27,14.70
2019,10,01,13,28,14.80
2019,10,01,13,29,14.90
2019,10,01,13,30,14.90
2019,10,01,13,31,14.90
2019,10,01,13,32,14.90
2019,10,01,13,33,15.00
2019,10,01,13,34,15.00
2019,10,01,13,35,15.10
2019,10,01,13,36,15.10
2019,10,01,13,37,15.10
2019,10,01,13,38,15.10
2019,10,01,13,39,15.20
2019,10,01,13,40,15.10
2019,10,01,13,41,15.10
2019,10,01,13,42,15.00
2019,10,01,13,43,15.00
2019,10,01,13,44,15.00
2019,10,01,13,45,15.00
2019,10,01,13,46,15.10
2019,10,01,13,47,15.10
2019,10,01,13,48,15.20
2019,10,01,13,49,15.20
2019,10,01,13,50,15.20
2019,10,01,13,51,15.20
2019,10,01,13,52,15.20
2019,10,01,13,53,15.30
2019,10,01,13,54,15.30
2019,10,01,13,55,15.30
2019,10,01,13,56,15.30
2019,10,01,13,57,15.40
2019,10,01,13,58,15.40
2019,10,01,13,59,15.50
2019,10,01,14,00,15.50
2019,10,01,14,01,15.60
2019,10,01,14,02,15.70
2019,10,01,14,03,15.70
2019,10,01,14,04,15.70
2019,10,01,14,05,15.70
2019,10,01,14,06,15.80
2019,10,01,14,07,15.80
2019,10,01,14,08,15.80
2019,10,01,14,09,15.80
2019,10,01,14,10,15.80
2019,10,01,14,11,15.80
2019,10,01,14,12,15.90
2019,10,01,14,13,15.90
2019,10,01,14,14,15.90
2019,10,01,14,15,16.00
2019,10,01,14,16,16.00
2019,10,01,14,17,16.00
2019,10,01,14,18,16.10
2019,10,01,14,19,16.10
2019,10,01,14,20,16.10
2019,10,01,14,21,16.20
2019,10,01,14,22,16.20
2019,10,01,14,23,16.30
2019,10,01,14,24,16.30
2019,10,01,14,25,16.40
2019,10,01,14,26,16.40
2019,10,01,14,27,16.40
2019,10,01,14,28,16.40
2019,10,01,14,29,16.40
2019,10,01,14,30,16.40
2019,10,01,14,31,16.50
2019,10,01,14,32,16.50
2019,10,01,14,33,16.50
2019,10,01,14,34,16.50
2019,10,01,14,35,16.50
2019,10,01,14,36,16.50
2019,10,01,14,37,16.60
2019,10,01,14,38,16.60
2019,10,01,14,39,16.60
2019,10,01,14,40,16.50
2019,10,01,14,41,16.50
2019,10,01,14,42,16.50
2019,10,01,14,43,16.60
2019,10,01,14,44,16.60
2019,10,01,14,45,16.60
2019,10,01,14,46,16.60
2019,10,01,14,47,16.60
2019,10,01,14,48,16.70
2019,10,01,14,49,16.70
2019,10,01,14,50,16.70
2019,10,01,14,51,16.70
2019,10,01,14,52,16.80
2019,10,01,14,53,16.80
2019,10,01,14,54,16.80
2019,10,01,14,55,16.80
2019,10,01,14,56,16.80
2019,10,01,14,57,16.80
2019,10,01,14,58,16.80
2019,10,01,14,59,16.80
2019,10,01,15,00,16.80
2019,10,01,15,01,16.80
2019,10,01,15,02,16.90
2019,10,01,15,03,16.90
2019,10,01,15,04,17.00
2019,10,01,15,05,17.00
2019,10,01,15,06,17.10
2019,10,01,15,07,17.10
2019,10,01,15,08,17.10
2019,10,01,15,09,17.10
2019,10,01,15,10,17.20
2019,10,01,15,11,17.20
2019,10,01,15,12,17.20
2019,10,01,15,13,17.20
2019,10,01,15,14,17.20
2019,10,01,15,15,17.20
2019,10,01,15,16,17.20
2019,10,01,15,17,17.20
2019,10,01,15,18,17.20
2019,10,01,15,19,17.20
2019,10,01,15,20,17.20
2019,10,01,15,21,17.20
2019,10,01,15,22,17.10
2019,10,01,15,23,17.00
2019,10,01,15,24,16.90
2019,10,01,15,25,16.90
2019,10,01,15,26,16.80
2019,10,01,15,27,16.80
2019,10,01,15,28,16.80
2019,10,01,15,29,16.80
2019,10,01,15,30,16.80
2019,10,01,15,31,16.70
2019,10,01,15,32,16.70
2019,10,01,15,33,16.70
2019,10,01,15,34,16.70
2019,10,01,15,35,16.70
2019,10,01,15,36,16.70
2019,10,01,15,37,16.60
2019,10,01,15,38,16.60
2019,10,01,15,39,16.60
2019,10,01,15,40,16.50
2019,10,01,15,41,16.50
2019,10,01,15,42,16.40
2019,10,01,15,43,16.40
2019,10,01,15,44,16.30
2019,10,01,15,45,16.30
2019,10,01,15,46,16.30
2019,10,01,15,47,16.30
2019,10,01,15,48,16.30
2019,10,01,15,49,16.30
2019,10,01,15,50,16.30
2019,10,01,15,51,16.30
2019,10,01,15,52,16.20
2019,10,01,15,53,16.20
2019,10,01,15,54,16.20
2019,10,01,15,55,16.20
2019,10,01,15,56,16.20
2019,10,01,15,57,16.20
2019,10,01,15,58,16.20
2019,10,01,15,59,16.20
2019,10,01,16,00,16.20
2019,10,01,16,01,16.20
2019,10,01,16,02,16.30
2019,10,01,16,03,16.30
2019,10,01,16,04,16.30
2019,10,01,16,05,16.40
2019,10,01,16,06,16.40
2019,10,01,16,07,16.40
2019,10,01,16,08,16.40
2019,10,01,16,09,16.40
2019,10,01,16,10,16.40
2019,10,01,16,11,16.50
2019,10,01,16,12,16.50
2019,10,01,16,13,16.40
2019,10,01,16,14,16.40
2019,10,01,16,15,16.40
2019,10,01,16,16,16.40
2019,10,01,16,17,16.40
2019,10,01,16,18,16.40
2019,10,01,16,19,16.40
2019,10,01,16,20,16.40
2019,10,01,16,21,16.30
2019,10,01,16,22,16.30
2019,10,01,16,23,16.40
2019,10,01,16,24,16.40
2019,10,01,16,25,16.50
2019,10,01,16,26,16.60
2019,10,01,16,27,16.60
2019,10,01,16,28,16.70
2019,10,01,16,29,16.80
2019,10,01,16,30,16.80
2019,10,01,16,31,16.90
2019,10,01,16,32,16.90
2019,10,01,16,33,16.90
2019,10,01,16,34,16.90
2019,10,01,16,35,16.80
2019,10,01,16,36,16.80
2019,10,01,16,37,16.80
2019,10,01,16,38,16.80
2019,10,01,16,39,16.80
2019,10,01,16,40,16.80
2019,10,01,16,41,16.80
2019,10,01,16,42,16.80
2019,10,01,16,43,16.80
2019,10,01,16,44,16.80
2019,10,01,16,45,16.80
2019,10,01,16,46,16.80
2019,10,01,16,47,16.80
2019,10,01,16,48,16.80
2019,10,01,16,49,16.80
2019,10,01,16,50,16.80
2019,10,01,16,51,16.80
2019,10,01,16,52,16.80
2019,10,01,16,53,16.70
2019,10,01,16,54,16.60
2019,10,01,16,55,16.50
2019,10,01,16,56,16.50
2019,10,01,16,57,16.40
2019,10,01,16,58,16.40
2019,10,01,16,59,16.40
2019,10,01,17,00,16.40
2019,10,01,17,01,16.30
2019,10,01,17,02,16.30
2019,10,01,17,03,16.30
2019,10,01,17,04,16.30
2019,10,01,17,05,16.30
2019,10,01,17,06,16.30
2019,10,01,17,07,16.30
2019,10,01,17,08,16.30
2019,10,01,17,09,16.40
2019,10,01,17,10,16.40
2019,10,01,17,11,16.40
2019,10,01,17,12,16.40
2019,10,01,17,13,16.30
2019,10,01,17,14,16.30
2019,10,01,17,15,16.30
2019,10,01,17,16,16.30
2019,10,01,17,17,16.30
2019,10,01,17,18,16.30
2019,10,01,17,19,16.30
2019,10,01,17,20,16.20
2019,10,01,17,21,16.20
2019,10,01,17,22,16.20
2019,10,01,17,23,16.20
2019,10,01,17,24,16.10
2019,10,01,17,25,16.10
2019,10,01,17,26,16.10
2019,10,01,17,27,16.10
2019,10,01,17,28,16.10
2019,10,01,17,29,16.10
2019,10,01,17,30,16.10
2019,10,01,17,31,16.10
2019,10,01,17,32,16.10
2019,10,01,17,33,16.10
2019,10,01,17,34,16.10
2019,10,01,17,35,16.00
2019,10,01,17,36,16.00
2019,10,01,17,37,15.90
2019,10,01,17,38,15.90
2019,10,01,17,39,15.90
2019,10,01,17,40,15.80
2019,10,01,17,41,15.80
2019,10,01,17,42,15.80
2019,10,01,17,43,15.70
2019,10,01,17,44,15.70
2019,10,01,17,45,15.70
2019,10,01,17,46,15.70
2019,10,01,17,47,15.70
2019,10,01,17,48,15.70
2019,10,01,17,49,15.60
2019,10,01,17,50,15.60
2019,10,01,17,51,15.60
2019,10,01,17,52,15.60
2019,10,01,17,53,15.60
2019,10,01,17,54,15.50
2019,10,01,17,55,15.50
2019,10,01,17,56,15.50
2019,10,01,17,57,15.50
2019,10,01,17,58,15.40
2019,10,01,17,59,15.40
2019,10,01,18,00,15.40
2019,10,01,18,01,15.40
2019,10,01,18,02,15.50
2019,10,01,18,03,15.50